DW8522 Weather Reports


time (UTC)temp
F
wind
direction
speed
knots
gust
knots
rain 1hr
in
rain 24hr
in
rain mn
in
humidity
%
barometer
mb
20260502213109 58 145 0.0 1.7 0.00 0.00 0.00 78 1035.3
20260502211555 57 145 0.0 2.6 0.00 0.00 0.00 81 1035.4
20260502210050 55 146 0.9 3.5 0.00 0.00 0.00 83 1035.4
20260502204548 54 149 0.0 3.5 0.00 0.00 0.00 85 1035.5
20260502203045 52 142 0.0 2.6 0.00 0.00 0.00 87 1035.4
20260502201546 51 142 0.0 1.7 0.00 0.00 0.00 89 1035.4
20260502200039 50 151 0.9 3.5 0.00 0.00 0.00 90 1035.2
20260502194535 49 137 0.9 3.5 0.00 0.00 0.00 91 1035.0
20260502193034 48 141 0.0 2.6 0.00 0.00 0.00 91 1035.0
20260502191531 49 147 0.9 2.6 0.00 0.00 0.00 91 1034.8
20260502190032 49 146 0.0 3.5 0.00 0.00 0.00 91 1034.7
20260502184527 49 143 0.9 2.6 0.00 0.00 0.00 90 1034.7
20260502183025 49 147 0.9 2.6 0.00 0.00 0.00 90 1034.7
20260502181525 49 139 0.0 1.7 0.00 0.00 0.00 90 1034.6
20260502163016 51 152 0.0 3.5 0.00 0.00 0.00 87 1034.3
20260502161514 51 146 0.0 3.5 0.00 0.00 0.00 87 1034.4
20260502151509 51 152 1.7 3.5 0.00 0.00 0.00 88 1034.5
20260502140103 50 146 0.9 3.5 0.00 0.00 0.00 89 1034.6
20260502123045 49 149 0.9 3.5 0.00 0.00 0.00 90 1034.5
20260502121542 49 150 0.0 1.7 0.00 0.00 0.00 90 1034.4
20260502114531 50 146 1.7 4.3 0.00 0.00 0.00 89 1034.4
20260502113030 50 151 1.7 4.3 0.00 0.00 0.00 89 1034.4
20260502111536 50 149 1.7 3.5 0.00 0.00 0.00 89 1034.3
20260502110034 51 146 0.9 3.5 0.00 0.00 0.00 89 1034.3
20260502104529 51 155 0.9 5.2 0.00 0.00 0.00 89 1034.4
20260502103027 51 146 0.9 2.6 0.00 0.00 0.00 89 1034.3
20260502101527 51 152 1.7 4.3 0.00 0.00 0.00 89 1034.1
20260502091524 52 146 0.0 2.6 0.00 0.00 0.00 89 1033.8
20260502071520 54 111 0.0 0.0 0.00 0.00 0.00 85 1033.1
20260502070023 55 111 0.0 0.0 0.00 0.00 0.00 84 1033.1
20260502064518 55 112 0.0 0.9 0.00 0.00 0.00 82 1033.0
20260502063026 56 111 0.0 0.0 0.00 0.00 0.00 80 1032.9
20260502061519 57 99 0.0 0.0 0.00 0.00 0.00 78 1032.7
20260502060021 58 99 0.0 0.0 0.00 0.00 0.00 76 1032.5
20260502054524 59 98 0.0 0.9 0.00 0.00 0.00 74 1032.4
20260502053015 61 99 0.0 0.9 0.00 0.00 0.00 70 1032.3
20260502051514 62 98 0.0 0.9 0.00 0.00 0.00 67 1032.3
20260502050013 65 111 0.9 1.7 0.00 0.00 0.00 63 1032.3
20260502044514 66 95 0.0 1.7 0.00 0.00 0.00 62 1032.4
20260502043010 66 128 0.0 1.7 0.00 0.00 0.00 61 1032.4
20260502041507 67 11 0.0 1.7 0.00 0.00 0.00 61 1032.4
20260502040008 67 119 0.9 2.6 0.00 0.00 0.00 60 1032.4
20260502034504 67 187 0.9 1.7 0.00 0.00 0.00 60 1032.4
20260502033002 67 70 0.9 2.6 0.00 0.00 0.00 60 1032.5
20260502031600 67 122 0.9 3.5 0.00 0.00 0.00 60 1032.5
20260502030101 67 99 0.9 2.6 0.00 0.00 0.00 59 1032.7
20260502024557 67 155 0.9 3.5 0.00 0.00 0.00 61 1032.8
20260502023156 67 100 0.0 5.2 0.00 0.00 0.00 61 1032.8
20260502021553 67 109 0.9 2.6 0.00 0.00 0.00 61 1033.0
20260502020052 67 108 0.9 3.5 0.00 0.00 0.00 59 1033.2
20260502014550 67 101 0.0 3.5 0.00 0.00 0.00 61 1033.4
20260502013049 67 94 0.9 3.5 0.00 0.00 0.00 61 1033.5
20260502011543 67 91 1.7 4.3 0.00 0.00 0.00 60 1033.7
20260502010047 66 77 1.7 4.3 0.00 0.00 0.00 61 1033.9
20260502004552 65 122 0.9 3.5 0.00 0.00 0.00 64 1034.1
20260502003032 64 98 0.9 3.5 0.00 0.00 0.00 65 1034.3
20260502001528 64 134 0.0 2.6 0.00 0.00 0.00 64 1034.6
20260502000041 65 60 0.9 1.7 0.00 0.00 0.00 62 1034.9
20260501234529 65 90 0.0 1.7 0.00 0.00 0.00 64 1035.2
20260501233023 65 112 0.9 2.6 0.00 0.00 0.00 65 1035.3
20260501231534 64 135 0.0 0.9 0.00 0.00 0.00 64 1035.5
20260501230019 63 136 0.0 1.7 0.00 0.00 0.00 67 1035.5
20260501224515 63 131 0.0 1.7 0.00 0.00 0.00 72 1035.5
20260501223011 62 149 0.0 1.7 0.00 0.00 0.00 73 1035.6
20260501221507 61 158 0.0 2.6 0.00 0.00 0.00 74 1035.7
20260501220005 59 153 0.0 1.7 0.00 0.00 0.00 75 1035.8
20260501214502 59 149 0.0 1.7 0.00 0.00 0.00 77 1035.8